This is the latest recevied weather packets stored in our database for station/object K7YVO. If no packets are shown the sender has not sent any weather packets the latest 10 day(s).
| Time | Temp. | Humidity | Pressure | Rain* | Wind** | Luminosity | Snow |
|---|---|---|---|---|---|---|---|
| 1777732772 | 9.44° C | 97% | 1018 hPa | 0 mm | - | 22 W/m² | - |
| 1777732470 | 9.44° C | 97% | 1018 hPa | 0 mm | - | 18 W/m² | - |
| 1777732167 | 9.44° C | 97% | 1018.1 hPa | 0 mm | - | 16 W/m² | - |
| 1777731864 | 9.44° C | 97% | 1018.2 hPa | 0 mm | - | 15 W/m² | - |
| 1777731561 | 9.44° C | 97% | 1018.2 hPa | 0 mm | - | 16 W/m² | - |
| 1777731258 | 8.89° C | 96% | 1018.1 hPa | 0 mm | - | 15 W/m² | - |
| 1777730956 | 9.44° C | 97% | 1018.1 hPa | 0 mm | - | 14 W/m² | - |
| 1777730655 | 9.44° C | 97% | 1018.3 hPa | 0 mm | - | 11 W/m² | - |
| 1777730350 | 9.44° C | 97% | 1018.2 hPa | 0 mm | - | 9 W/m² | - |
| 1777730046 | 8.89° C | 97% | 1018.1 hPa | 0 mm | - | 8 W/m² | - |
| 1777729742 | 8.89° C | 97% | 1018 hPa | 0 mm | - | 7 W/m² | - |
| 1777729439 | 8.89° C | 97% | 1018 hPa | 0 mm | - | 7 W/m² | - |
| 1777729135 | 8.89° C | 97% | 1017.9 hPa | 0 mm | - | 6 W/m² | - |
| 1777728832 | 8.89° C | 97% | 1017.8 hPa | 0 mm | - | 6 W/m² | - |
| 1777728530 | 8.89° C | 97% | 1017.8 hPa | 0 mm | - | 6 W/m² | - |
| 1777728227 | 8.89° C | 97% | 1017.8 hPa | 0 mm | - | 5 W/m² | - |
| 1777727924 | 8.89° C | 97% | 1017.9 hPa | 0 mm | - | 3 W/m² | - |
| 1777727621 | 8.89° C | 97% | 1018 hPa | 0 mm | - | 2 W/m² | - |
| 1777727318 | 8.89° C | 97% | 1017.8 hPa | 0 mm | - | 1 W/m² | - |
| 1777727016 | 8.89° C | 97% | 1017.8 hPa | 0 mm | - | 1 W/m² | - |
| 1777726712 | 8.89° C | 97% | 1017.8 hPa | 0 mm | - | 1 W/m² | - |
| 1777726410 | 9.44° C | 97% | 1017.5 hPa | 0 mm | - | 0 W/m² | - |
| 1777726106 | 9.44° C | 97% | 1017.8 hPa | 0 mm | - | 0 W/m² | - |
| 1777725803 | 9.44° C | 97% | 1017.7 hPa | 0 mm | - | 0 W/m² | - |
| 1777725501 | 8.89° C | 97% | 1017.7 hPa | 0 mm | - | 0 W/m² | - |
* Rain latest hour (hover to see other rain measurements)
** Current wind speed in m/s (hover to see current wind gust speed)